owner,sensor,date,latitude,longitude,relative_humidity,qcFlag 
DISL,ioos:station:DISL:MBLA:1,2017-03-01T00:00:00Z,30.4367,-88.0117,100.0,1111122 
DISL,ioos:station:DISL:MBLA:1,2017-03-01T00:30:00Z,30.4367,-88.0117,100.0,1111122 
DISL,ioos:station:DISL:MBLA:1,2017-03-01T01:00:00Z,30.4367,-88.0117,100.0,1111122 
DISL,ioos:station:DISL:MBLA:1,2017-03-01T01:30:00Z,30.4367,-88.0117,100.0,1111122 
DISL,ioos:station:DISL:MBLA:1,2017-03-01T02:00:00Z,30.4367,-88.0117,100.0,1111122 
DISL,ioos:station:DISL:MBLA:1,2017-03-01T02:30:00Z,30.4367,-88.0117,100.0,1111122 
DISL,ioos:station:DISL:MBLA:1,2017-03-01T03:00:00Z,30.4367,-88.0117,100.0,1111122 
DISL,ioos:station:DISL:MBLA:1,2017-03-01T03:30:00Z,30.4367,-88.0117,100.0,1111122 
DISL,ioos:station:DISL:MBLA:1,2017-03-01T04:00:00Z,30.4367,-88.0117,100.0,1111122 
DISL,ioos:station:DISL:MBLA:1,2017-03-01T04:30:00Z,30.4367,-88.0117,100.0,1111122 
DISL,ioos:station:DISL:MBLA:1,2017-03-01T05:00:00Z,30.4367,-88.0117,100.0,1111122 
DISL,ioos:station:DISL:MBLA:1,2017-03-01T05:30:00Z,30.4367,-88.0117,100.0,1111122 
DISL,ioos:station:DISL:MBLA:1,2017-03-01T06:00:00Z,30.4367,-88.0117,100.0,1111122 
DISL,ioos:station:DISL:MBLA:1,2017-03-01T06:30:00Z,30.4367,-88.0117,100.0,1111122 
DISL,ioos:station:DISL:MBLA:1,2017-03-01T07:00:00Z,30.4367,-88.0117,100.0,1111122 
DISL,ioos:station:DISL:MBLA:1,2017-03-01T07:30:00Z,30.4367,-88.0117,100.0,1111122 
DISL,ioos:station:DISL:MBLA:1,2017-03-01T08:00:00Z,30.4367,-88.0117,100.0,1111122 
DISL,ioos:station:DISL:MBLA:1,2017-03-01T08:30:00Z,30.4367,-88.0117,100.0,1111122 
DISL,ioos:station:DISL:MBLA:1,2017-03-01T09:00:00Z,30.4367,-88.0117,100.0,1111122 
DISL,ioos:station:DISL:MBLA:1,2017-03-01T09:30:00Z,30.4367,-88.0117,100.0,1111122 
DISL,ioos:station:DISL:MBLA:1,2017-03-01T10:00:00Z,30.4367,-88.0117,100.0,1111122 
DISL,ioos:station:DISL:MBLA:1,2017-03-01T10:30:00Z,30.4367,-88.0117,100.0,1111122 
DISL,ioos:station:DISL:MBLA:1,2017-03-01T11:00:00Z,30.4367,-88.0117,100.0,1111122 
DISL,ioos:station:DISL:MBLA:1,2017-03-01T11:30:00Z,30.4367,-88.0117,100.0,1111122 
DISL,ioos:station:DISL:MBLA:1,2017-03-01T12:00:00Z,30.4367,-88.0117,100.0,1111122 
DISL,ioos:station:DISL:MBLA:1,2017-03-01T12:30:00Z,30.4367,-88.0117,100.0,1111122 
DISL,ioos:station:DISL:MBLA:1,2017-03-01T13:00:00Z,30.4367,-88.0117,100.0,1111122 
DISL,ioos:station:DISL:MBLA:1,2017-03-01T13:30:00Z,30.4367,-88.0117,99.2,1111122 
DISL,ioos:station:DISL:MBLA:1,2017-03-01T14:00:00Z,30.4367,-88.0117,99.9,1111122 
DISL,ioos:station:DISL:MBLA:1,2017-03-01T14:30:00Z,30.4367,-88.0117,99.6,1111122 
DISL,ioos:station:DISL:MBLA:1,2017-03-01T15:00:00Z,30.4367,-88.0117,91.0,1111122 
DISL,ioos:station:DISL:MBLA:1,2017-03-01T15:30:00Z,30.4367,-88.0117,90.9,1111122 
DISL,ioos:station:DISL:MBLA:1,2017-03-01T16:00:00Z,30.4367,-88.0117,91.2,1111122 
DISL,ioos:station:DISL:MBLA:1,2017-03-01T16:30:00Z,30.4367,-88.0117,89.5,1111122 
DISL,ioos:station:DISL:MBLA:1,2017-03-01T17:00:00Z,30.4367,-88.0117,91.3,1111122 
DISL,ioos:station:DISL:MBLA:1,2017-03-01T17:30:00Z,30.4367,-88.0117,90.9,1111122 
DISL,ioos:station:DISL:MBLA:1,2017-03-01T18:00:00Z,30.4367,-88.0117,94.4,1111122 
DISL,ioos:station:DISL:MBLA:1,2017-03-01T18:30:00Z,30.4367,-88.0117,92.1,1111122 
DISL,ioos:station:DISL:MBLA:1,2017-03-01T19:00:00Z,30.4367,-88.0117,94.1,1111122 
DISL,ioos:station:DISL:MBLA:1,2017-03-01T19:30:00Z,30.4367,-88.0117,97.2,1111122 
DISL,ioos:station:DISL:MBLA:1,2017-03-01T20:00:00Z,30.4367,-88.0117,98.6,1111122 
DISL,ioos:station:DISL:MBLA:1,2017-03-01T20:30:00Z,30.4367,-88.0117,98.5,1111122 
DISL,ioos:station:DISL:MBLA:1,2017-03-01T21:00:00Z,30.4367,-88.0117,99.4,1111122 
DISL,ioos:station:DISL:MBLA:1,2017-03-01T21:30:00Z,30.4367,-88.0117,99.9,1111122 
DISL,ioos:station:DISL:MBLA:1,2017-03-01T22:00:00Z,30.4367,-88.0117,100.0,1111122 
DISL,ioos:station:DISL:MBLA:1,2017-03-01T22:30:00Z,30.4367,-88.0117,100.0,1111122 
DISL,ioos:station:DISL:MBLA:1,2017-03-01T23:00:00Z,30.4367,-88.0117,100.0,1111122 
DISL,ioos:station:DISL:MBLA:1,2017-03-01T23:30:00Z,30.4367,-88.0117,100.0,1111122 
DISL,ioos:station:DISL:MBLA:1,2017-03-02T00:00:00Z,30.4367,-88.0117,100.0,1111122 
DISL,ioos:station:DISL:MBLA:1,2017-03-02T00:30:00Z,30.4367,-88.0117,100.0,1111122 
DISL,ioos:station:DISL:MBLA:1,2017-03-02T01:00:00Z,30.4367,-88.0117,100.0,1111122 
DISL,ioos:station:DISL:MBLA:1,2017-03-02T01:30:00Z,30.4367,-88.0117,100.0,1111122 
DISL,ioos:station:DISL:MBLA:1,2017-03-02T02:00:00Z,30.4367,-88.0117,100.0,1111122 
DISL,ioos:station:DISL:MBLA:1,2017-03-02T02:30:00Z,30.4367,-88.0117,100.0,1111122 
DISL,ioos:station:DISL:MBLA:1,2017-03-02T03:00:00Z,30.4367,-88.0117,100.0,1111122 
DISL,ioos:station:DISL:MBLA:1,2017-03-02T03:30:00Z,30.4367,-88.0117,100.0,1111122 
DISL,ioos:station:DISL:MBLA:1,2017-03-02T04:00:00Z,30.4367,-88.0117,90.0,1111122 
DISL,ioos:station:DISL:MBLA:1,2017-03-02T04:30:00Z,30.4367,-88.0117,82.2,1111122 
DISL,ioos:station:DISL:MBLA:1,2017-03-02T05:00:00Z,30.4367,-88.0117,83.1,1111122 
DISL,ioos:station:DISL:MBLA:1,2017-03-02T05:30:00Z,30.4367,-88.0117,85.9,1111122 
DISL,ioos:station:DISL:MBLA:1,2017-03-02T06:00:00Z,30.4367,-88.0117,80.2,1111122 
DISL,ioos:station:DISL:MBLA:1,2017-03-02T06:30:00Z,30.4367,-88.0117,77.33,1111122 
DISL,ioos:station:DISL:MBLA:1,2017-03-02T07:00:00Z,30.4367,-88.0117,70.21,1111122 
DISL,ioos:station:DISL:MBLA:1,2017-03-02T07:30:00Z,30.4367,-88.0117,62.61,1111122 
DISL,ioos:station:DISL:MBLA:1,2017-03-02T08:00:00Z,30.4367,-88.0117,56.23,1111122 
DISL,ioos:station:DISL:MBLA:1,2017-03-02T08:30:00Z,30.4367,-88.0117,52.5,1111122 
DISL,ioos:station:DISL:MBLA:1,2017-03-02T09:00:00Z,30.4367,-88.0117,45.52,1111122 
DISL,ioos:station:DISL:MBLA:1,2017-03-02T09:30:00Z,30.4367,-88.0117,43.58,1111122 
DISL,ioos:station:DISL:MBLA:1,2017-03-02T10:00:00Z,30.4367,-88.0117,43.69,1111122 
DISL,ioos:station:DISL:MBLA:1,2017-03-02T10:30:00Z,30.4367,-88.0117,35.01,1111122 
DISL,ioos:station:DISL:MBLA:1,2017-03-02T11:00:00Z,30.4367,-88.0117,44.03,1111122 
DISL,ioos:station:DISL:MBLA:1,2017-03-02T11:30:00Z,30.4367,-88.0117,37.73,1111122 
DISL,ioos:station:DISL:MBLA:1,2017-03-02T12:00:00Z,30.4367,-88.0117,36.71,1111122 
DISL,ioos:station:DISL:MBLA:1,2017-03-02T12:30:00Z,30.4367,-88.0117,40.71,1111122 
DISL,ioos:station:DISL:MBLA:1,2017-03-02T13:00:00Z,30.4367,-88.0117,34.33,1111122 
DISL,ioos:station:DISL:MBLA:1,2017-03-02T13:30:00Z,30.4367,-88.0117,37.19,1111122 
DISL,ioos:station:DISL:MBLA:1,2017-03-02T14:00:00Z,30.4367,-88.0117,38.1,1111122 
DISL,ioos:station:DISL:MBLA:1,2017-03-02T14:30:00Z,30.4367,-88.0117,33.59,1111122 
DISL,ioos:station:DISL:MBLA:1,2017-03-02T15:00:00Z,30.4367,-88.0117,33.73,1111122 
DISL,ioos:station:DISL:MBLA:1,2017-03-02T15:30:00Z,30.4367,-88.0117,44.24,1111122 
DISL,ioos:station:DISL:MBLA:1,2017-03-02T16:00:00Z,30.4367,-88.0117,31.82,1111122 
DISL,ioos:station:DISL:MBLA:1,2017-03-02T16:30:00Z,30.4367,-88.0117,34.23,1111122 
DISL,ioos:station:DISL:MBLA:1,2017-03-02T17:00:00Z,30.4367,-88.0117,37.31,1111122 
DISL,ioos:station:DISL:MBLA:1,2017-03-02T17:30:00Z,30.4367,-88.0117,32.49,1111122 
DISL,ioos:station:DISL:MBLA:1,2017-03-02T18:00:00Z,30.4367,-88.0117,29.64,1111122 
DISL,ioos:station:DISL:MBLA:1,2017-03-02T18:30:00Z,30.4367,-88.0117,26.28,1111122 
DISL,ioos:station:DISL:MBLA:1,2017-03-02T19:00:00Z,30.4367,-88.0117,28.12,1111122 
DISL,ioos:station:DISL:MBLA:1,2017-03-02T19:30:00Z,30.4367,-88.0117,32.12,1111122 
DISL,ioos:station:DISL:MBLA:1,2017-03-02T20:00:00Z,30.4367,-88.0117,23.2,1111122 
DISL,ioos:station:DISL:MBLA:1,2017-03-02T20:30:00Z,30.4367,-88.0117,28.66,1111122 
DISL,ioos:station:DISL:MBLA:1,2017-03-02T21:00:00Z,30.4367,-88.0117,22.21,1111122 
DISL,ioos:station:DISL:MBLA:1,2017-03-02T21:30:00Z,30.4367,-88.0117,24.28,1111122 
DISL,ioos:station:DISL:MBLA:1,2017-03-02T22:00:00Z,30.4367,-88.0117,27.4,1111122 
DISL,ioos:station:DISL:MBLA:1,2017-03-02T22:30:00Z,30.4367,-88.0117,30.52,1111122 
DISL,ioos:station:DISL:MBLA:1,2017-03-02T23:00:00Z,30.4367,-88.0117,23.09,1111122 
DISL,ioos:station:DISL:MBLA:1,2017-03-02T23:30:00Z,30.4367,-88.0117,22.69,1111122 
DISL,ioos:station:DISL:MBLA:1,2017-03-03T00:00:00Z,30.4367,-88.0117,29.07,1111122 
DISL,ioos:station:DISL:MBLA:1,2017-03-03T00:30:00Z,30.4367,-88.0117,23.13,1111122 
DISL,ioos:station:DISL:MBLA:1,2017-03-03T01:00:00Z,30.4367,-88.0117,26.59,1111122 
DISL,ioos:station:DISL:MBLA:1,2017-03-03T01:30:00Z,30.4367,-88.0117,28.8,1111122 
DISL,ioos:station:DISL:MBLA:1,2017-03-03T02:00:00Z,30.4367,-88.0117,29.55,1111122 
DISL,ioos:station:DISL:MBLA:1,2017-03-03T02:30:00Z,30.4367,-88.0117,36.27,1111122 
DISL,ioos:station:DISL:MBLA:1,2017-03-03T03:00:00Z,30.4367,-88.0117,37.59,1111122 
DISL,ioos:station:DISL:MBLA:1,2017-03-03T03:30:00Z,30.4367,-88.0117,36.37,1111122 
DISL,ioos:station:DISL:MBLA:1,2017-03-03T04:00:00Z,30.4367,-88.0117,36.51,1111122 
DISL,ioos:station:DISL:MBLA:1,2017-03-03T04:30:00Z,30.4367,-88.0117,39.39,1111122 
DISL,ioos:station:DISL:MBLA:1,2017-03-03T05:00:00Z,30.4367,-88.0117,48.08,1111122 
DISL,ioos:station:DISL:MBLA:1,2017-03-03T05:30:00Z,30.4367,-88.0117,44.41,1111122 
DISL,ioos:station:DISL:MBLA:1,2017-03-03T06:00:00Z,30.4367,-88.0117,43.33,1111122 
DISL,ioos:station:DISL:MBLA:1,2017-03-03T06:30:00Z,30.4367,-88.0117,44.52,1111122 
DISL,ioos:station:DISL:MBLA:1,2017-03-03T07:00:00Z,30.4367,-88.0117,40.72,1111122 
DISL,ioos:station:DISL:MBLA:1,2017-03-03T07:30:00Z,30.4367,-88.0117,43.74,1111122 
DISL,ioos:station:DISL:MBLA:1,2017-03-03T08:00:00Z,30.4367,-88.0117,50.94,1111122 
DISL,ioos:station:DISL:MBLA:1,2017-03-03T08:30:00Z,30.4367,-88.0117,50.3,1111122 
DISL,ioos:station:DISL:MBLA:1,2017-03-03T09:00:00Z,30.4367,-88.0117,46.29,1111122 
DISL,ioos:station:DISL:MBLA:1,2017-03-03T09:30:00Z,30.4367,-88.0117,49.96,1111122 
DISL,ioos:station:DISL:MBLA:1,2017-03-03T10:00:00Z,30.4367,-88.0117,55.83,1111122 
DISL,ioos:station:DISL:MBLA:1,2017-03-03T10:30:00Z,30.4367,-88.0117,48.46,1111122 
DISL,ioos:station:DISL:MBLA:1,2017-03-03T11:00:00Z,30.4367,-88.0117,50.74,1111122 
DISL,ioos:station:DISL:MBLA:1,2017-03-03T11:30:00Z,30.4367,-88.0117,39.67,1111122 
DISL,ioos:station:DISL:MBLA:1,2017-03-03T12:00:00Z,30.4367,-88.0117,46.46,1111122 
DISL,ioos:station:DISL:MBLA:1,2017-03-03T12:30:00Z,30.4367,-88.0117,43.37,1111122 
DISL,ioos:station:DISL:MBLA:1,2017-03-03T13:00:00Z,30.4367,-88.0117,42.56,1111122 
DISL,ioos:station:DISL:MBLA:1,2017-03-03T13:30:00Z,30.4367,-88.0117,37.6,1111122 
DISL,ioos:station:DISL:MBLA:1,2017-03-03T14:00:00Z,30.4367,-88.0117,36.58,1111122 
DISL,ioos:station:DISL:MBLA:1,2017-03-03T14:30:00Z,30.4367,-88.0117,33.05,1111122 
DISL,ioos:station:DISL:MBLA:1,2017-03-03T15:00:00Z,30.4367,-88.0117,38.03,1111122 
DISL,ioos:station:DISL:MBLA:1,2017-03-03T15:30:00Z,30.4367,-88.0117,34.67,1111122 
DISL,ioos:station:DISL:MBLA:1,2017-03-03T16:00:00Z,30.4367,-88.0117,40.47,1111122 
DISL,ioos:station:DISL:MBLA:1,2017-03-03T16:30:00Z,30.4367,-88.0117,42.19,1111122 
DISL,ioos:station:DISL:MBLA:1,2017-03-03T17:00:00Z,30.4367,-88.0117,38.9,1111122 
DISL,ioos:station:DISL:MBLA:1,2017-03-03T17:30:00Z,30.4367,-88.0117,30.25,1111122 
DISL,ioos:station:DISL:MBLA:1,2017-03-03T18:00:00Z,30.4367,-88.0117,29.51,1111122 
DISL,ioos:station:DISL:MBLA:1,2017-03-03T18:30:00Z,30.4367,-88.0117,32.83,1111122 
DISL,ioos:station:DISL:MBLA:1,2017-03-03T19:00:00Z,30.4367,-88.0117,32.25,1111122 
DISL,ioos:station:DISL:MBLA:1,2017-03-03T19:30:00Z,30.4367,-88.0117,30.75,1111122 
DISL,ioos:station:DISL:MBLA:1,2017-03-03T20:00:00Z,30.4367,-88.0117,29.19,1111122 
DISL,ioos:station:DISL:MBLA:1,2017-03-03T20:30:00Z,30.4367,-88.0117,33.8,1111122 
DISL,ioos:station:DISL:MBLA:1,2017-03-03T21:00:00Z,30.4367,-88.0117,31.02,1111122 
DISL,ioos:station:DISL:MBLA:1,2017-03-03T21:30:00Z,30.4367,-88.0117,28.07,1111122 
DISL,ioos:station:DISL:MBLA:1,2017-03-03T22:00:00Z,30.4367,-88.0117,28.82,1111122 
DISL,ioos:station:DISL:MBLA:1,2017-03-03T22:30:00Z,30.4367,-88.0117,37.46,1111122 
DISL,ioos:station:DISL:MBLA:1,2017-03-03T23:00:00Z,30.4367,-88.0117,23.87,1111122 
DISL,ioos:station:DISL:MBLA:1,2017-03-03T23:30:00Z,30.4367,-88.0117,30.24,1111122 
DISL,ioos:station:DISL:MBLA:1,2017-03-04T00:00:00Z,30.4367,-88.0117,32.08,1111122 
DISL,ioos:station:DISL:MBLA:1,2017-03-04T00:30:00Z,30.4367,-88.0117,27.2,1111122 
DISL,ioos:station:DISL:MBLA:1,2017-03-04T01:00:00Z,30.4367,-88.0117,34.09,1111122 
DISL,ioos:station:DISL:MBLA:1,2017-03-04T01:30:00Z,30.4367,-88.0117,35.75,1111122 
DISL,ioos:station:DISL:MBLA:1,2017-03-04T02:00:00Z,30.4367,-88.0117,32.02,1111122 
DISL,ioos:station:DISL:MBLA:1,2017-03-04T02:30:00Z,30.4367,-88.0117,30.59,1111122 
DISL,ioos:station:DISL:MBLA:1,2017-03-04T03:00:00Z,30.4367,-88.0117,34.36,1111122 
DISL,ioos:station:DISL:MBLA:1,2017-03-04T03:30:00Z,30.4367,-88.0117,34.88,1111122 
DISL,ioos:station:DISL:MBLA:1,2017-03-04T04:00:00Z,30.4367,-88.0117,30.26,1111122 
DISL,ioos:station:DISL:MBLA:1,2017-03-04T04:30:00Z,30.4367,-88.0117,27.82,1111122 
DISL,ioos:station:DISL:MBLA:1,2017-03-04T05:00:00Z,30.4367,-88.0117,28.87,1111122 
DISL,ioos:station:DISL:MBLA:1,2017-03-04T05:30:00Z,30.4367,-88.0117,30.64,1111122 
DISL,ioos:station:DISL:MBLA:1,2017-03-04T06:00:00Z,30.4367,-88.0117,33.93,1111122 
DISL,ioos:station:DISL:MBLA:1,2017-03-04T06:30:00Z,30.4367,-88.0117,34.06,1111122 
DISL,ioos:station:DISL:MBLA:1,2017-03-04T07:00:00Z,30.4367,-88.0117,30.98,1111122 
DISL,ioos:station:DISL:MBLA:1,2017-03-04T07:30:00Z,30.4367,-88.0117,35.63,1111122 
DISL,ioos:station:DISL:MBLA:1,2017-03-04T08:00:00Z,30.4367,-88.0117,38.75,1111122 
DISL,ioos:station:DISL:MBLA:1,2017-03-04T08:30:00Z,30.4367,-88.0117,37.5,1111122 
DISL,ioos:station:DISL:MBLA:1,2017-03-04T09:00:00Z,30.4367,-88.0117,37.7,1111122 
DISL,ioos:station:DISL:MBLA:1,2017-03-04T09:30:00Z,30.4367,-88.0117,41.74,1111122 
DISL,ioos:station:DISL:MBLA:1,2017-03-04T10:00:00Z,30.4367,-88.0117,34.52,1111122 
DISL,ioos:station:DISL:MBLA:1,2017-03-04T10:30:00Z,30.4367,-88.0117,33.73,1111122 
DISL,ioos:station:DISL:MBLA:1,2017-03-04T11:00:00Z,30.4367,-88.0117,41.71,1111122 
DISL,ioos:station:DISL:MBLA:1,2017-03-04T11:30:00Z,30.4367,-88.0117,43.27,1111122 
DISL,ioos:station:DISL:MBLA:1,2017-03-04T12:00:00Z,30.4367,-88.0117,43.85,1111122 
DISL,ioos:station:DISL:MBLA:1,2017-03-04T12:30:00Z,30.4367,-88.0117,36.86,1111122 
DISL,ioos:station:DISL:MBLA:1,2017-03-04T13:00:00Z,30.4367,-88.0117,39.27,1111122 
DISL,ioos:station:DISL:MBLA:1,2017-03-04T13:30:00Z,30.4367,-88.0117,36.69,1111122 
DISL,ioos:station:DISL:MBLA:1,2017-03-04T14:00:00Z,30.4367,-88.0117,37.03,1111122 
DISL,ioos:station:DISL:MBLA:1,2017-03-04T14:30:00Z,30.4367,-88.0117,40.69,1111122 
DISL,ioos:station:DISL:MBLA:1,2017-03-04T15:00:00Z,30.4367,-88.0117,36.99,1111122 
DISL,ioos:station:DISL:MBLA:1,2017-03-04T15:30:00Z,30.4367,-88.0117,44.66,1111122 
DISL,ioos:station:DISL:MBLA:1,2017-03-04T16:00:00Z,30.4367,-88.0117,31.97,1111122 
DISL,ioos:station:DISL:MBLA:1,2017-03-04T16:30:00Z,30.4367,-88.0117,32.98,1111122 
DISL,ioos:station:DISL:MBLA:1,2017-03-04T17:00:00Z,30.4367,-88.0117,26.73,1111122 
DISL,ioos:station:DISL:MBLA:1,2017-03-04T17:30:00Z,30.4367,-88.0117,24.59,1111122 
DISL,ioos:station:DISL:MBLA:1,2017-03-04T18:00:00Z,30.4367,-88.0117,23.94,1111122 
DISL,ioos:station:DISL:MBLA:1,2017-03-04T18:30:00Z,30.4367,-88.0117,31.61,1111122 
DISL,ioos:station:DISL:MBLA:1,2017-03-04T19:00:00Z,30.4367,-88.0117,33.3,1111122 
DISL,ioos:station:DISL:MBLA:1,2017-03-04T19:30:00Z,30.4367,-88.0117,37.43,1111122 
DISL,ioos:station:DISL:MBLA:1,2017-03-04T20:00:00Z,30.4367,-88.0117,39.57,1111122 
DISL,ioos:station:DISL:MBLA:1,2017-03-04T20:30:00Z,30.4367,-88.0117,45.5,1111122 
DISL,ioos:station:DISL:MBLA:1,2017-03-04T21:00:00Z,30.4367,-88.0117,41.24,1111122 
DISL,ioos:station:DISL:MBLA:1,2017-03-04T21:30:00Z,30.4367,-88.0117,38.56,1111122 
DISL,ioos:station:DISL:MBLA:1,2017-03-04T22:00:00Z,30.4367,-88.0117,43.1,1111122 
DISL,ioos:station:DISL:MBLA:1,2017-03-04T22:30:00Z,30.4367,-88.0117,39.98,1111122 
DISL,ioos:station:DISL:MBLA:1,2017-03-04T23:00:00Z,30.4367,-88.0117,45.34,1111122 
DISL,ioos:station:DISL:MBLA:1,2017-03-04T23:30:00Z,30.4367,-88.0117,40.19,1111122 
DISL,ioos:station:DISL:MBLA:1,2017-03-05T00:00:00Z,30.4367,-88.0117,40.12,1111122 
DISL,ioos:station:DISL:MBLA:1,2017-03-05T00:30:00Z,30.4367,-88.0117,44.57,1111122 
DISL,ioos:station:DISL:MBLA:1,2017-03-05T01:00:00Z,30.4367,-88.0117,47.75,1111122 
DISL,ioos:station:DISL:MBLA:1,2017-03-05T01:30:00Z,30.4367,-88.0117,48.64,1111122 
DISL,ioos:station:DISL:MBLA:1,2017-03-05T02:00:00Z,30.4367,-88.0117,51.02,1111122 
DISL,ioos:station:DISL:MBLA:1,2017-03-05T02:30:00Z,30.4367,-88.0117,51.94,1111122 
DISL,ioos:station:DISL:MBLA:1,2017-03-05T03:00:00Z,30.4367,-88.0117,51.67,1111122 
DISL,ioos:station:DISL:MBLA:1,2017-03-05T03:30:00Z,30.4367,-88.0117,49.19,1111122 
DISL,ioos:station:DISL:MBLA:1,2017-03-05T04:00:00Z,30.4367,-88.0117,57.61,1111122 
DISL,ioos:station:DISL:MBLA:1,2017-03-05T04:30:00Z,30.4367,-88.0117,52.32,1111122 
DISL,ioos:station:DISL:MBLA:1,2017-03-05T05:00:00Z,30.4367,-88.0117,54.59,1111122 
DISL,ioos:station:DISL:MBLA:1,2017-03-05T05:30:00Z,30.4367,-88.0117,61.98,1111122 
DISL,ioos:station:DISL:MBLA:1,2017-03-05T06:00:00Z,30.4367,-88.0117,56.42,1111122 
DISL,ioos:station:DISL:MBLA:1,2017-03-05T06:30:00Z,30.4367,-88.0117,58.02,1111122 
DISL,ioos:station:DISL:MBLA:1,2017-03-05T07:00:00Z,30.4367,-88.0117,55.44,1111122 
DISL,ioos:station:DISL:MBLA:1,2017-03-05T07:30:00Z,30.4367,-88.0117,47.8,1111122 
DISL,ioos:station:DISL:MBLA:1,2017-03-05T08:00:00Z,30.4367,-88.0117,46.11,1111122 
DISL,ioos:station:DISL:MBLA:1,2017-03-05T08:30:00Z,30.4367,-88.0117,48.21,1111122 
DISL,ioos:station:DISL:MBLA:1,2017-03-05T09:00:00Z,30.4367,-88.0117,52.42,1111122 
DISL,ioos:station:DISL:MBLA:1,2017-03-05T09:30:00Z,30.4367,-88.0117,54.69,1111122 
DISL,ioos:station:DISL:MBLA:1,2017-03-05T10:00:00Z,30.4367,-88.0117,56.46,1111122 
DISL,ioos:station:DISL:MBLA:1,2017-03-05T10:30:00Z,30.4367,-88.0117,60.8,1111122 
DISL,ioos:station:DISL:MBLA:1,2017-03-05T11:00:00Z,30.4367,-88.0117,65.38,1111122 
DISL,ioos:station:DISL:MBLA:1,2017-03-05T11:30:00Z,30.4367,-88.0117,67.45,1111122 
DISL,ioos:station:DISL:MBLA:1,2017-03-05T12:00:00Z,30.4367,-88.0117,69.45,1111122 
DISL,ioos:station:DISL:MBLA:1,2017-03-05T12:30:00Z,30.4367,-88.0117,72.3,1111122 
DISL,ioos:station:DISL:MBLA:1,2017-03-05T13:00:00Z,30.4367,-88.0117,74.24,1111122 
DISL,ioos:station:DISL:MBLA:1,2017-03-05T13:30:00Z,30.4367,-88.0117,75.42,1111122 
DISL,ioos:station:DISL:MBLA:1,2017-03-05T14:00:00Z,30.4367,-88.0117,78.55,1111122 
DISL,ioos:station:DISL:MBLA:1,2017-03-05T14:30:00Z,30.4367,-88.0117,80.6,1111122 
DISL,ioos:station:DISL:MBLA:1,2017-03-05T15:00:00Z,30.4367,-88.0117,79.66,1111122 
DISL,ioos:station:DISL:MBLA:1,2017-03-05T15:30:00Z,30.4367,-88.0117,80.6,1111122 
DISL,ioos:station:DISL:MBLA:1,2017-03-05T16:00:00Z,30.4367,-88.0117,79.99,1111122 
DISL,ioos:station:DISL:MBLA:1,2017-03-05T16:30:00Z,30.4367,-88.0117,78.82,1111122 
DISL,ioos:station:DISL:MBLA:1,2017-03-05T17:00:00Z,30.4367,-88.0117,79.87,1111122 
DISL,ioos:station:DISL:MBLA:1,2017-03-05T17:30:00Z,30.4367,-88.0117,80.1,1111122 
DISL,ioos:station:DISL:MBLA:1,2017-03-05T18:00:00Z,30.4367,-88.0117,79.02,1111122 
DISL,ioos:station:DISL:MBLA:1,2017-03-05T18:30:00Z,30.4367,-88.0117,79.46,1111122 
DISL,ioos:station:DISL:MBLA:1,2017-03-05T19:00:00Z,30.4367,-88.0117,79.02,1111122 
DISL,ioos:station:DISL:MBLA:1,2017-03-05T19:30:00Z,30.4367,-88.0117,77.32,1111122 
DISL,ioos:station:DISL:MBLA:1,2017-03-05T20:00:00Z,30.4367,-88.0117,78.92,1111122 
DISL,ioos:station:DISL:MBLA:1,2017-03-05T20:30:00Z,30.4367,-88.0117,78.0,1111122 
DISL,ioos:station:DISL:MBLA:1,2017-03-05T21:00:00Z,30.4367,-88.0117,79.6,1111122 
DISL,ioos:station:DISL:MBLA:1,2017-03-05T21:30:00Z,30.4367,-88.0117,78.07,1111122 
DISL,ioos:station:DISL:MBLA:1,2017-03-05T22:00:00Z,30.4367,-88.0117,78.48,1111122 
DISL,ioos:station:DISL:MBLA:1,2017-03-05T22:30:00Z,30.4367,-88.0117,76.95,1111122 
DISL,ioos:station:DISL:MBLA:1,2017-03-05T23:00:00Z,30.4367,-88.0117,77.63,1111122 
DISL,ioos:station:DISL:MBLA:1,2017-03-05T23:30:00Z,30.4367,-88.0117,76.62,1111122 
DISL,ioos:station:DISL:MBLA:1,2017-03-06T00:00:00Z,30.4367,-88.0117,76.51,1111122 
DISL,ioos:station:DISL:MBLA:1,2017-03-06T00:30:00Z,30.4367,-88.0117,75.77,1111122 
DISL,ioos:station:DISL:MBLA:1,2017-03-06T01:00:00Z,30.4367,-88.0117,75.73,1111122 
DISL,ioos:station:DISL:MBLA:1,2017-03-06T01:30:00Z,30.4367,-88.0117,75.19,1111122 
DISL,ioos:station:DISL:MBLA:1,2017-03-06T02:00:00Z,30.4367,-88.0117,74.14,1111122 
DISL,ioos:station:DISL:MBLA:1,2017-03-06T02:30:00Z,30.4367,-88.0117,76.65,1111122 
DISL,ioos:station:DISL:MBLA:1,2017-03-06T03:00:00Z,30.4367,-88.0117,79.53,1111122 
DISL,ioos:station:DISL:MBLA:1,2017-03-06T03:30:00Z,30.4367,-88.0117,80.7,1111122 
DISL,ioos:station:DISL:MBLA:1,2017-03-06T04:00:00Z,30.4367,-88.0117,79.74,1111122 
DISL,ioos:station:DISL:MBLA:1,2017-03-06T04:30:00Z,30.4367,-88.0117,80.5,1111122 
DISL,ioos:station:DISL:MBLA:1,2017-03-06T05:00:00Z,30.4367,-88.0117,79.84,1111122 
DISL,ioos:station:DISL:MBLA:1,2017-03-06T05:30:00Z,30.4367,-88.0117,79.87,1111122 
DISL,ioos:station:DISL:MBLA:1,2017-03-06T06:00:00Z,30.4367,-88.0117,79.91,1111122 
DISL,ioos:station:DISL:MBLA:1,2017-03-06T06:30:00Z,30.4367,-88.0117,79.77,1111122 
DISL,ioos:station:DISL:MBLA:1,2017-03-06T07:00:00Z,30.4367,-88.0117,79.33,1111122 
DISL,ioos:station:DISL:MBLA:1,2017-03-06T07:30:00Z,30.4367,-88.0117,78.58,1111122 
DISL,ioos:station:DISL:MBLA:1,2017-03-06T08:00:00Z,30.4367,-88.0117,79.29,1111122 
DISL,ioos:station:DISL:MBLA:1,2017-03-06T08:30:00Z,30.4367,-88.0117,81.5,1111122 
DISL,ioos:station:DISL:MBLA:1,2017-03-06T09:00:00Z,30.4367,-88.0117,81.3,1111122 
DISL,ioos:station:DISL:MBLA:1,2017-03-06T09:30:00Z,30.4367,-88.0117,80.0,1111122 
DISL,ioos:station:DISL:MBLA:1,2017-03-06T10:00:00Z,30.4367,-88.0117,81.1,1111122 
DISL,ioos:station:DISL:MBLA:1,2017-03-06T10:30:00Z,30.4367,-88.0117,82.9,1111122 
DISL,ioos:station:DISL:MBLA:1,2017-03-06T11:00:00Z,30.4367,-88.0117,84.4,1111122 
DISL,ioos:station:DISL:MBLA:1,2017-03-06T11:30:00Z,30.4367,-88.0117,82.8,1111122 
DISL,ioos:station:DISL:MBLA:1,2017-03-06T12:00:00Z,30.4367,-88.0117,84.3,1111122 
DISL,ioos:station:DISL:MBLA:1,2017-03-06T12:30:00Z,30.4367,-88.0117,82.3,1111122 
DISL,ioos:station:DISL:MBLA:1,2017-03-06T13:00:00Z,30.4367,-88.0117,81.9,1111122 
DISL,ioos:station:DISL:MBLA:1,2017-03-06T13:30:00Z,30.4367,-88.0117,80.2,1111122 
DISL,ioos:station:DISL:MBLA:1,2017-03-06T14:00:00Z,30.4367,-88.0117,78.14,1111122 
DISL,ioos:station:DISL:MBLA:1,2017-03-06T14:30:00Z,30.4367,-88.0117,77.67,1111122 
DISL,ioos:station:DISL:MBLA:1,2017-03-06T15:00:00Z,30.4367,-88.0117,76.95,1111122 
DISL,ioos:station:DISL:MBLA:1,2017-03-06T15:30:00Z,30.4367,-88.0117,77.8,1111122 
DISL,ioos:station:DISL:MBLA:1,2017-03-06T16:00:00Z,30.4367,-88.0117,77.89,1111122 
DISL,ioos:station:DISL:MBLA:1,2017-03-06T16:30:00Z,30.4367,-88.0117,77.93,1111122 
DISL,ioos:station:DISL:MBLA:1,2017-03-06T17:00:00Z,30.4367,-88.0117,76.57,1111122 
DISL,ioos:station:DISL:MBLA:1,2017-03-06T17:30:00Z,30.4367,-88.0117,76.4,1111122 
DISL,ioos:station:DISL:MBLA:1,2017-03-06T18:00:00Z,30.4367,-88.0117,75.82,1111122 
DISL,ioos:station:DISL:MBLA:1,2017-03-06T18:30:00Z,30.4367,-88.0117,75.65,1111122 
DISL,ioos:station:DISL:MBLA:1,2017-03-06T19:00:00Z,30.4367,-88.0117,74.39,1111122 
DISL,ioos:station:DISL:MBLA:1,2017-03-06T19:30:00Z,30.4367,-88.0117,73.78,1111122 
DISL,ioos:station:DISL:MBLA:1,2017-03-06T20:00:00Z,30.4367,-88.0117,75.03,1111122 
DISL,ioos:station:DISL:MBLA:1,2017-03-06T20:30:00Z,30.4367,-88.0117,76.72,1111122 
DISL,ioos:station:DISL:MBLA:1,2017-03-06T21:00:00Z,30.4367,-88.0117,77.1,1111122 
DISL,ioos:station:DISL:MBLA:1,2017-03-06T21:30:00Z,30.4367,-88.0117,76.56,1111122 
DISL,ioos:station:DISL:MBLA:1,2017-03-06T22:00:00Z,30.4367,-88.0117,76.56,1111122 
DISL,ioos:station:DISL:MBLA:1,2017-03-06T22:30:00Z,30.4367,-88.0117,77.34,1111122 
DISL,ioos:station:DISL:MBLA:1,2017-03-06T23:00:00Z,30.4367,-88.0117,78.7,1111122 
DISL,ioos:station:DISL:MBLA:1,2017-03-06T23:30:00Z,30.4367,-88.0117,79.75,1111122 
DISL,ioos:station:DISL:MBLA:1,2017-03-07T00:00:00Z,30.4367,-88.0117,80.5,1111122 